Hourly Weather Alkeevo

Today, 27 February, Saturday

Time Temperature Precipitation Wind Pressure Humidity
00:00 -24°C° 0.1 mm 8 mps 740 mmHg 92%
01:00 -24°C° 0.1 mm 9 mps 739 mmHg 93%
02:00 -22°C° 1.2 mm 8 mps 738 mmHg 93%
03:00 -21°C° 1.2 mm 8 mps 737 mmHg 93%
04:00 -21°C° 0 mm 8 mps 736 mmHg 93%
05:00 -19°C° 0.6 mm 7 mps 735 mmHg 93%
06:00 -19°C° 0.6 mm 7 mps 734 mmHg 93%
07:00 -19°C° 0.6 mm 7 mps 733 mmHg 93%
08:00 -18°C° 0.2 mm 7 mps 733 mmHg 93%
09:00 -16°C° 0.2 mm 6 mps 733 mmHg 93%
10:00 -15°C° 0 mm 6 mps 732 mmHg 94%
11:00 -14°C° 0.3 mm 6 mps 732 mmHg 94%
12:00 -12°C° 0.3 mm 5 mps 732 mmHg 94%
13:00 -11°C° 0.3 mm 5 mps 732 mmHg 94%
14:00 -10°C° 0.3 mm 5 mps 732 mmHg 94%
15:00 -8°C° 0.3 mm 5 mps 732 mmHg 94%
16:00 -7°C° 0 mm 4 mps 732 mmHg 97%
17:00 -7°C° 0.3 mm 4 mps 731 mmHg 97%
18:00 -5°C° 0.3 mm 4 mps 731 mmHg 97%
19:00 -5°C° 0.3 mm 3 mps 731 mmHg 96%
20:00 -5°C° 0.3 mm 3 mps 731 mmHg 96%
21:00 -4°C° 0.3 mm 2 mps 731 mmHg 97%
22:00 -4°C° 0.3 mm 2 mps 732 mmHg 97%
23:00 -3°C° 0.1 mm 1 mps 731 mmHg 97%

Tomorrow, 28 February, Sunday

Time Temperature Precipitation Wind Pressure Humidity
00:00 -3°C° 0.1 mm 1 mps 731 mmHg 97%
01:00 -3°C° 0.1 mm 1 mps 731 mmHg 97%
02:00 -6°C° 0.1 mm 2 mps 732 mmHg 97%
03:00 -7°C° 0.1 mm 2 mps 732 mmHg 96%
04:00 -10°C° 0.1 mm 3 mps 732 mmHg 96%
05:00 -12°C° 0.1 mm 3 mps 732 mmHg 95%
06:00 -14°C° 0.1 mm 4 mps 733 mmHg 95%
07:00 -16°C° 0.1 mm 4 mps 733 mmHg 95%
08:00 -16°C° 0 mm 4 mps 733 mmHg 95%
09:00 -16°C° 0 mm 4 mps 733 mmHg 95%
10:00 -17°C° 0 mm 4 mps 734 mmHg 95%
11:00 -16°C° 0 mm 4 mps 734 mmHg 94%
12:00 -16°C° 0 mm 4 mps 735 mmHg 93%
13:00 -15°C° 0 mm 4 mps 735 mmHg 92%
14:00 -15°C° 0 mm 5 mps 736 mmHg 92%
15:00 -15°C° 0 mm 5 mps 736 mmHg 92%
16:00 -15°C° 0 mm 5 mps 737 mmHg 92%
17:00 -16°C° 0.1 mm 4 mps 737 mmHg 93%
18:00 -16°C° 0.1 mm 4 mps 738 mmHg 94%
19:00 -16°C° 0.1 mm 3 mps 738 mmHg 95%
20:00 -17°C° 0 mm 3 mps 739 mmHg 95%
21:00 -17°C° 0 mm 3 mps 740 mmHg 96%
22:00 -18°C° 0 mm 3 mps 740 mmHg 96%
23:00 -18°C° 0 mm 3 mps 741 mmHg 97%

Day after tomorrow, 1 March, Monday

Time Temperature Precipitation Wind Pressure Humidity
00:00 -19°C° 0 mm 3 mps 741 mmHg 97%
01:00 -19°C° 0 mm 2 mps 741 mmHg 97%
02:00 -19°C° 0 mm 2 mps 742 mmHg 97%
03:00 -22°C° 0 mm 3 mps 742 mmHg 97%
04:00 -22°C° 0 mm 3 mps 743 mmHg 97%
05:00 -23°C° 0 mm 3 mps 743 mmHg 98%
06:00 -23°C° 0 mm 2 mps 743 mmHg 98%
07:00 -24°C° 0 mm 2 mps 744 mmHg 99%
08:00 -23°C° 0 mm 2 mps 744 mmHg 98%
09:00 -23°C° 0 mm 2 mps 745 mmHg 98%
10:00 -21°C° 0 mm 2 mps 746 mmHg 97%
11:00 -20°C° 0 mm 2 mps 746 mmHg 96%
12:00 -19°C° 0 mm 2 mps 746 mmHg 94%
13:00 -18°C° 0 mm 2 mps 746 mmHg 92%
14:00 -19°C° 0 mm 3 mps 747 mmHg 93%
15:00 -18°C° 0 mm 3 mps 747 mmHg 93%
16:00 -18°C° 0 mm 3 mps 747 mmHg 93%
17:00 -18°C° 0 mm 2 mps 747 mmHg 95%
18:00 -20°C° 0 mm 2 mps 747 mmHg 97%
19:00 -21°C° 0 mm 2 mps 747 mmHg 99%
20:00 -23°C° 0 mm 2 mps 747 mmHg 99%
21:00 -24°C° 0 mm 2 mps 747 mmHg 99%
22:00 -24°C° 0 mm 2 mps 747 mmHg 99%
23:00 -24°C° 0 mm 2 mps 746 mmHg 98%

2 March, Tuesday

Time Temperature Precipitation Wind Pressure Humidity
00:00 -25°C° 0 mm 2 mps 746 mmHg 98%
01:00 -25°C° 0 mm 2 mps 746 mmHg 97%
02:00 -26°C° 0 mm 3 mps 745 mmHg 97%
03:00 -25°C° 0 mm 3 mps 745 mmHg 96%
04:00 -26°C° 0 mm 4 mps 744 mmHg 96%
05:00 -25°C° 0 mm 4 mps 743 mmHg 95%
06:00 -25°C° 0 mm 5 mps 743 mmHg 95%
07:00 -24°C° 0 mm 5 mps 742 mmHg 94%
08:00 -23°C° 0 mm 6 mps 741 mmHg 94%
09:00 -21°C° 0 mm 6 mps 741 mmHg 94%
10:00 -20°C° 0 mm 6 mps 740 mmHg 94%
11:00 -19°C° 0.1 mm 7 mps 739 mmHg 93%
12:00 -18°C° 0.1 mm 7 mps 739 mmHg 93%
13:00 -17°C° 0.1 mm 8 mps 738 mmHg 92%
14:00 -15°C° 0.1 mm 7 mps 737 mmHg 92%
15:00 -15°C° 0.1 mm 7 mps 737 mmHg 91%
16:00 -14°C° 0.1 mm 7 mps 736 mmHg 91%
17:00 -14°C° 0.2 mm 7 mps 736 mmHg 91%
18:00 -13°C° 0.2 mm 7 mps 735 mmHg 91%
19:00 -13°C° 0.2 mm 7 mps 735 mmHg 91%
20:00 -12°C° 0.1 mm 7 mps 734 mmHg 91%
21:00 -11°C° 0.1 mm 6 mps 734 mmHg 92%
22:00 -10°C° 0.1 mm 6 mps 734 mmHg 92%
23:00 -10°C° 0.1 mm 6 mps 733 mmHg 92%

3 March, Wednesday

Time Temperature Precipitation Wind Pressure Humidity
00:00 -10°C° 0.1 mm 5 mps 733 mmHg 93%
01:00 -10°C° 0.1 mm 5 mps 732 mmHg 93%
02:00 -8°C° 0.1 mm 5 mps 732 mmHg 93%
03:00 -8°C° 0.1 mm 4 mps 732 mmHg 94%
04:00 -8°C° 0.1 mm 4 mps 731 mmHg 94%
05:00 -8°C° 0.1 mm 4 mps 731 mmHg 95%
06:00 -7°C° 0.1 mm 3 mps 731 mmHg 95%
07:00 -7°C° 0.1 mm 3 mps 731 mmHg 95%
08:00 -8°C° 0.1 mm 4 mps 731 mmHg 95%
09:00 -8°C° 0.1 mm 4 mps 732 mmHg 94%
10:00 -8°C° 0.1 mm 5 mps 732 mmHg 93%
11:00 -8°C° 0 mm 5 mps 732 mmHg 93%
12:00 -7°C° 0 mm 5 mps 732 mmHg 92%
13:00 -7°C° 0 mm 5 mps 733 mmHg 92%
14:00 -7°C° 0.1 mm 5 mps 733 mmHg 92%
15:00 -7°C° 0.1 mm 5 mps 733 mmHg 92%
16:00 -8°C° 0.1 mm 6 mps 733 mmHg 92%
17:00 -8°C° 0.1 mm 5 mps 734 mmHg 93%
18:00 -8°C° 0.1 mm 5 mps 734 mmHg 94%
19:00 -8°C° 0.1 mm 4 mps 734 mmHg 94%
20:00 -9°C° 0.1 mm 4 mps 735 mmHg 95%
21:00 -9°C° 0.1 mm 4 mps 735 mmHg 95%
22:00 -9°C° 0.1 mm 4 mps 736 mmHg 95%
23:00 -10°C° 0.1 mm 4 mps 736 mmHg 94%

4 March, Thursday

Time Temperature Precipitation Wind Pressure Humidity
00:00 -12°C° 0.1 mm 5 mps 736 mmHg 93%
01:00 -13°C° 0.1 mm 5 mps 737 mmHg 93%
02:00 -14°C° 0 mm 4 mps 737 mmHg 94%
03:00 -15°C° 0 mm 4 mps 737 mmHg 95%
04:00 -16°C° 0 mm 3 mps 738 mmHg 97%
05:00 -15°C° 0.1 mm 3 mps 738 mmHg 96%
06:00 -15°C° 0.1 mm 3 mps 739 mmHg 95%
07:00 -14°C° 0.1 mm 3 mps 739 mmHg 95%
08:00 -15°C° 0 mm 4 mps 740 mmHg 95%
09:00 -15°C° 0 mm 4 mps 740 mmHg 95%
10:00 -15°C° 0 mm 4 mps 740 mmHg 94%
11:00 -14°C° 0 mm 4 mps 741 mmHg 94%
12:00 -12°C° 0 mm 4 mps 741 mmHg 93%
13:00 -12°C° 0 mm 4 mps 741 mmHg 92%
14:00 -12°C° 0 mm 4 mps 741 mmHg 92%
15:00 -11°C° 0 mm 4 mps 741 mmHg 92%
16:00 -11°C° 0 mm 4 mps 742 mmHg 91%
17:00 -12°C° 0 mm 4 mps 742 mmHg 93%
18:00 -14°C° 0 mm 4 mps 742 mmHg 94%
19:00 -16°C° 0 mm 4 mps 742 mmHg 96%
20:00 -15°C° 0 mm 4 mps 741 mmHg 95%
21:00 -15°C° 0 mm 5 mps 741 mmHg 94%
22:00 -15°C° 0 mm 5 mps 741 mmHg 93%
23:00 -15°C° 0 mm 6 mps 740 mmHg 93%
Show more